Hourly Data Report for December 03, 2005

TORONTO CITY
ONTARIO

43°40'00.000" N
79°24'00.000" W
112.50 m
6158355
71508
XTO

Download Data

Hourly Data (December 2005)
Hourly Data Report for December 3, 2005
TIME
LST
Temp Definition
°C
Dew Point Definition
°C
Rel Hum Definition
%
Precip. Amount Definition
mm

Wind Dir Definition
10's deg

Wind Spd Definition
km/h
Visibility Definition
km
Stn Press Definition
kPa
Hmdx Definition


Wind Chill Definition


Weather Definition


00:00 -3.0 -7.2 73   LegendMM LegendMM   99.83     LegendNANA
01:00 -3.2 -6.3 79   LegendMM LegendMM   99.89     LegendNANA
02:00 -3.8 -5.5 88   LegendMM LegendMM   99.94     LegendNANA
03:00 -4.0 -5.7 88   LegendMM LegendMM   100.00     LegendNANA
04:00 -4.1 -5.9 87   LegendMM LegendMM   100.02     LegendNANA
05:00 -4.3 -6.6 84   LegendMM LegendMM   100.07     LegendNANA
06:00 -4.3 -6.9 82   LegendMM LegendMM   100.13     LegendNANA
07:00 -4.0 -6.7 81   LegendMM LegendMM   100.17     LegendNANA
08:00 -3.9 -7.2 78   LegendMM LegendMM   100.19     LegendNANA
09:00 -3.2 -8.1 69   LegendMM LegendMM   100.23     LegendNANA
10:00 -2.5 -7.8 67   LegendMM LegendMM   100.26     LegendNANA
11:00 -1.6 -8.0 62   LegendMM LegendMM   100.25     LegendNANA
12:00 -0.9 -8.3 57   LegendMM LegendMM   100.16     LegendNANA
13:00 -0.7 -8.3 56   LegendMM LegendMM   100.15     LegendNANA
14:00 -0.4 -8.1 56   LegendMM LegendMM   100.16     LegendNANA
15:00 -0.5 -9.3 51   LegendMM LegendMM   100.15     LegendNANA
16:00 -0.9 -10.0 50   LegendMM LegendMM   100.14     LegendNANA
17:00 -1.6 -9.8 54   LegendMM LegendMM   100.18     LegendNANA
18:00 -1.9 -7.4 66   LegendMM LegendMM   100.19     LegendNANA
19:00 -2.6 -6.6 74   LegendMM LegendMM   100.18     LegendNANA
20:00 -2.7 -6.4 76   LegendMM LegendMM   100.08     LegendNANA
21:00 -2.7 -6.8 73   LegendMM LegendMM   100.10     LegendNANA
22:00 -3.0 -7.4 72   LegendMM LegendMM   100.05     LegendNANA
23:00 -2.8 -7.7 69   LegendMM LegendMM   99.97     LegendNANA

Notes on Data Quality.

Legend

  • E = Estimated
  • M = Missing
  • NA = Not Available*
  • [empty] = Indicates an unobserved value
Date modified: